CO-58
1 28895U 05043F 09232.22134410 .00000125 00000-0 35714-4 0 3746
2 28895 098.0503 121.0166 0018403 144.4307 215.8111 14.59788653203072
FALCON
1 30776U 07006E 09231.92431672 .00000165 00000-0 15010-4 0 06524
2 30776 035.4338 072.6944 0000289 009.2112 350.8609 15.03286615134698
MAST
1 31126U 07012K 09232.74436281 .00000021 00000-0 15021-4 0 6650
2 31126 097.9845 284.5757 0095817 079.4720 281.7348 14.53512412124417
CAPE1
1 31130U 07012P 09232.64019071 .00000080 00000-0 28845-4 0 6763
2 31130 097.9842 282.5180 0103921 085.7378 275.5662 14.52080733124046
COMPASS
1 32787U 08021E 09232.19206445 -.00000063 00000-0 -12459-5 0 4414
2 32787 097.9378 295.4604 0015719 180.5276 179.5922 14.81641096 70927
AAUSAT2
1 32788U 08021F 09231.74943570 .00000104 00000-0 19973-4 0 4367
2 32788 097.9344 295.0885 0015013 183.1715 176.9396 14.81765523 70863
DO-64
1 32789U 08021G 09231.77131545 .00000358 00000-0 52056-4 0 04564
2 32789 097.9408 295.3160 0015441 181.3068 178.8104 14.81770310070868
CO-66
1 32791U 08021J 09232.17482218 .00000071 00000-0 15855-4 0 4331
2 32791 097.9392 295.4757 0015908 178.9116 181.2132 14.81466762 70884
RS-30
1 32953U 08025A 09232.50099964 .00000010 00000-0 00000 0 0 3843
2 32953 082.4983 216.6151 0020404 041.3534 318.9095 12.43002856 56388
TACSAT-3
1 35001U 09028A 09231.41656502 .00001099 00000-0 33478-4 0 00845
2 35001 040.4562 222.4849 0025527 273.2618 086.5276 15.39046939014090
PHARMSAT
1 35002U 09028B 09232.34375764 .00001187 00000-0 34788-4 0 750
2 35002 040.4687 216.3950 0028517 283.7835 075.9807 15.39807842 14239
HAWKSAT1
1 35003U 09028C 09231.99002980 .00002364 00000-0 62025-4 0 00830
2 35003 040.4617 218.0382 0029139 284.8661 074.8963 15.40431962014195
CP6
1 35004U 09028D 09231.98981753 .00002637 00000-0 68475-4 0 00786
2 35004 040.4626 218.0421 0028675 284.1216 075.6437 15.40465550014187
AEROCUB3
1 35005U 09028E 09232.84352155 .00002552 00000-0 66875-4 0 734
2 35005 040.4735 213.1770 0028443 288.8659 070.9077 15.40277680 14315
DRAGNSAT
1 35690U 09038B 09231.75633162 .00016394 00000-0 84946-4 0 215
2 35690 051.6420 339.3593 0003883 141.8958 218.2323 15.81216048 3208
POLLUX
1 35693U 09038E 09232.71102154 .00015097 00000-0 80318-4 0 204
2 35693 051.6417 334.4859 0003968 087.3868 272.7644 15.80717099 3321
CASTOR
1 35694U 09038F 09231.70307606 .00008010 00000-0 45261-4 0 00229
2 35694 051.6431 339.7590 0004612 093.1860 266.9641 15.80252898003167
